[[{"header":{"parameterUnit":"m.s-1","parameterCategory":1,"la1":30.2991,"la2":30.254,"lo1":-89.0895,"lo2":-89.0444,"dy":0.0017,"dx":0.0017,"nx":28,"ny":28,"refTime":"2026-02-03T03:00:00:Z","depth":0,"parameterNumber":2,"parameterNumberName":"U-component_of_WINDS"},"data":[0,0,0,0,0,0,0,0,0,0,0,0,0,0,0,0,0,0,0,0,0,0,0,0,0,0,0,0,0,0,0,0,0,0,0,0,0,0,0,0,0,0,0,0,0,0,0,0,0,0,0,0,0,0,0,0,0,0,2.4006,2.4009,0,2.428,2.4283,2.4286,2.4347,2.4345,2.4343,2.4341,2.4625,2.4634,2.4644,0,0,0,0,0,0,0,0,0,0,0,0,0,2.3536,2.3545,2.4006,2.4009,2.4013,2.428,2.4284,2.4287,2.4348,2.4345,2.4343,2.4341,2.4622,2.4633,2.4644,0,0,0,0,0,0,0,0,0,0,0,0,0,2.3768,2.3547,2.4005,2.4075,2.4084,2.4279,2.4284,2.4288,2.4348,2.4345,2.4342,2.4339,2.4618,2.4632,2.4646,2.4792,0,0,2.4689,2.4695,0,0,0,0,0,0,0,0,2.3755,2.3786,2.4061,2.407,2.4081,2.4276,2.4222,2.4457,2.4349,2.4248,2.4341,2.4338,2.4512,2.4534,2.4592,2.4805,2.4818,2.469,2.4699,2.4705,2.4709,0,0,0,0,0,0,0,2.3739,2.3774,2.4114,2.4065,2.4077,2.4093,2.4123,2.4267,2.4393,2.4256,2.4261,2.4293,2.4517,2.4579,2.46,2.4822,2.469,2.4702,2.4711,2.4717,2.5168,2.5171,0,0,0,0,0,0,2.371,2.376,2.4106,2.4123,2.3907,2.4104,2.4137,2.4217,2.4392,2.4415,2.4295,2.4295,2.4556,2.4583,2.461,2.4791,2.4705,2.4718,2.4726,2.5164,2.5169,2.5172,0,0,0,0,0,0,2.37,2.3741,2.4095,2.3943,2.3989,2.4115,2.4204,2.4224,2.4286,2.4421,2.4444,2.4335,2.4555,2.459,2.4746,2.4802,2.4724,2.4737,2.516,2.5166,2.517,2.5156,0,0,0,0,0,0,2.3686,2.3737,2.3793,2.3944,2.3997,2.4225,2.4207,2.4231,2.431,2.4312,2.4465,2.4487,2.4555,2.4725,2.476,2.482,2.4748,2.5156,2.5163,2.5169,2.5152,2.516,2.5167,0,0,0,0,0,2.3669,2.3778,2.3795,2.3837,2.407,2.4228,2.4259,2.4334,2.4314,2.4372,2.4458,2.4482,2.479,2.474,2.478,2.4845,2.5152,2.5161,2.5168,2.5148,2.5158,2.5166,0,0,0,0,0,0,2.3632,2.3799,2.382,2.3981,2.409,2.4238,2.4313,2.4342,2.446,2.4457,2.4546,2.458,2.4731,2.4804,2.4745,2.4996,2.4971,2.4987,2.4942,2.4952,2.496,2.4938,2.476,0,0,0,0,0,2.3642,2.3756,2.3897,2.4025,2.4079,2.4186,2.4258,2.4307,2.4424,2.447,2.4569,2.4682,2.4804,2.4883,2.5003,2.5163,2.5197,2.5228,2.5235,2.5241,2.5253,2.5343,2.5358,2.5198,2.5198,2.5198,0,0,2.3664,2.377,2.3837,2.402,2.411,2.4227,2.4225,2.4348,2.4436,2.449,2.4642,2.4718,2.485,2.5009,2.5083,2.5075,2.5305,2.5251,2.5254,2.5264,2.5353,2.5367,2.5381,2.5204,2.5203,2.5202,0,0,2.3764,2.3856,2.3973,2.4063,2.4199,2.427,2.4298,2.4442,2.4494,2.4649,2.4691,2.4797,2.5006,2.5098,2.5172,2.5307,2.5333,2.5344,2.5383,2.5469,2.5481,2.5493,2.554,2.5555,2.5357,2.5357,2.5357,0,2.3775,2.3951,2.4029,2.415,2.423,2.4283,2.4402,2.4486,2.4654,2.4708,2.4696,2.4958,2.5052,2.5231,2.5264,2.5323,2.5357,2.5326,2.5473,2.5485,2.5497,2.5543,2.556,2.5357,2.5357,2.5357,2.5357,0,2.3957,2.4079,2.4157,2.4317,2.4405,2.4524,2.4621,2.4701,2.4742,2.4814,2.4971,2.5085,2.5228,2.5275,2.5317,2.5461,2.5451,2.5455,2.5431,2.5511,2.5556,2.5574,2.5357,2.5357,2.5357,2.5357,0,0,2.404,2.4241,2.4268,2.4341,2.4495,2.4591,2.4713,2.4852,2.4919,2.5034,2.5138,2.5314,2.5318,2.5402,2.5455,2.5531,2.5629,2.5526,2.553,2.5539,2.5793,2.5788,2.5807,2.5648,2.5651,2.5654,2.5782,0,2.4157,2.4375,2.4449,2.463,2.4742,2.4795,2.4902,2.5008,2.5079,2.5186,2.5265,2.5387,2.5385,2.5436,2.5513,2.56,2.568,2.5592,2.5745,2.5749,2.5708,2.583,2.5825,2.5939,2.5799,2.5803,2.5805,0,2.4323,2.4438,2.463,2.4769,2.4819,2.4913,2.5046,2.5148,2.527,2.5316,2.541,2.5457,2.5587,2.5557,2.5737,2.5675,2.5743,2.5795,2.5802,2.5817,2.578,2.5847,2.5978,2.5994,2.5833,2.5831,2.5829,0,2.4361,2.4565,2.4706,2.4767,2.4933,2.4998,2.507,2.5189,2.5268,2.5385,2.5437,2.5568,2.564,2.5741,2.5822,2.5793,2.5995,2.5972,2.6037,2.6035,2.6075,2.6071,2.6217,2.6122,2.6121,2.6121,2.6121,0,2.4483,2.4598,2.4725,2.4811,2.4941,2.5026,2.5153,2.5229,2.5334,2.5436,2.5491,2.5586,2.5689,2.5798,2.5863,2.6002,2.6035,2.6076,2.6091,2.607,2.6064,2.6113,2.6107,2.6126,2.6125,2.6124,2.6123,0,2.4547,2.4637,2.4793,2.4938,2.4977,2.5066,2.5191,2.5277,2.535,2.5479,2.5514,2.563,2.5761,2.5853,2.6022,2.6066,2.6215,2.6231,2.6173,2.618,2.6239,2.6231,2.642,2.6448,2.6335,2.6336,2.6337,0,2.4618,2.4707,2.4861,2.4932,2.5004,2.512,2.52,2.5288,2.5369,2.5514,2.5583,2.5717,2.5829,2.6036,2.6136,2.6265,2.6284,2.6341,2.6303,2.6278,2.6282,2.6275,2.6284,2.6345,2.6346,2.6347,2.6348,0,2.4733,2.4773,2.4886,2.5015,2.5109,2.5215,2.5322,2.5378,2.5484,2.5573,2.5706,2.5793,2.5965,2.6097,2.6236,2.6312,2.6348,2.6359,2.638,2.6358,2.632,2.634,2.6186,2.6354,2.6353,2.6353,2.6352,2.6352,2.4802,2.4883,2.5003,2.5127,2.5217,2.5315,2.5402,2.5487,2.5599,2.5745,2.579,2.5929,2.6049,2.6239,2.6317,2.6427,2.6423,2.6455,2.6463,2.6469,2.6467,2.6304,2.6453,2.6453,2.6453,2.6453,2.6453,0,2.4918,2.4998,2.5111,2.5258,2.5356,2.538,2.55,2.558,2.57,2.5809,2.5918,2.6071,2.62,2.631,2.6444,2.6511,2.653,2.6543,2.6538,2.6554,2.6463,2.643,2.6525,2.6525,2.6525,2.6525,2.6525,2.6525,2.499,2.5128,2.5182,2.5365,2.5446,2.558,2.5646,2.5737,2.5824,2.5993,2.6099,2.617,2.628,2.6422,2.6541,2.6571,2.6616,2.6625,2.6657,2.657,2.6561,2.6553,2.6522,2.6634,2.6635,2.6739,2.674,2.6741]},{"header":{"parameterUnit":"m.s-1","parameterCategory":1,"la1":30.2991,"la2":30.254,"lo1":-89.0895,"lo2":-89.0444,"dy":0.0017,"dx":0.0017,"nx":28,"ny":28,"refTime":"2026-02-03T03:00:00:Z","depth":0,"parameterNumber":3,"parameterNumberName":"V-component_of_WINDS"},"data":[0,0,0,0,0,0,0,0,0,0,0,0,0,0,0,0,0,0,0,0,0,0,0,0,0,0,0,0,0,0,0,0,0,0,0,0,0,0,0,0,0,0,0,0,0,0,0,0,0,0,0,0,0,0,0,0,0,0,2.7873,2.7875,0,2.8024,2.8026,2.8028,2.8017,2.8015,2.8013,2.801,2.8164,2.817,2.8176,0,0,0,0,0,0,0,0,0,0,0,0,0,2.7573,2.7578,2.7873,2.7875,2.7877,2.8024,2.8026,2.8028,2.8017,2.8015,2.8012,2.8009,2.8162,2.8169,2.8176,0,0,0,0,0,0,0,0,0,0,0,0,0,2.7712,2.758,2.7873,2.7889,2.7892,2.8024,2.8026,2.8029,2.8018,2.8015,2.8011,2.8008,2.8159,2.8168,2.8177,2.8302,0,0,2.8206,2.821,0,0,0,0,0,0,0,0,2.7704,2.7723,2.7885,2.7888,2.7892,2.7998,2.7976,2.812,2.8019,2.797,2.801,2.8007,2.8111,2.8124,2.816,2.8309,2.8315,2.8206,2.8212,2.8216,2.8219,0,0,0,0,0,0,0,2.7694,2.7716,2.7933,2.7887,2.7892,2.7888,2.7904,2.8004,2.8058,2.7974,2.7974,2.7992,2.8112,2.8151,2.8163,2.8318,2.8206,2.8214,2.822,2.8224,2.8575,2.8579,0,0,0,0,0,0,2.7681,2.7708,2.7928,2.7937,2.7788,2.7897,2.7914,2.7968,2.8057,2.8067,2.7995,2.7991,2.8137,2.8153,2.8169,2.832,2.8216,2.8225,2.823,2.8572,2.8576,2.858,0,0,0,0,0,0,2.7675,2.7701,2.7922,2.7823,2.7851,2.7905,2.7965,2.7972,2.8011,2.8072,2.8081,2.8024,2.8135,2.8156,2.8269,2.8325,2.8229,2.8237,2.8567,2.8573,2.8578,2.8624,0,0,0,0,0,0,2.7666,2.7699,2.7747,2.7824,2.7856,2.802,2.7969,2.7978,2.8027,2.8024,2.8102,2.8112,2.8134,2.8255,2.8278,2.8336,2.8244,2.8562,2.857,2.8576,2.8618,2.8631,2.8642,0,0,0,0,0,2.7655,2.7753,2.7749,2.7776,2.7918,2.8023,2.8042,2.8065,2.8032,2.808,2.812,2.811,2.8315,2.8267,2.8292,2.8354,2.8559,2.8568,2.8576,2.8612,2.8628,2.8641,0,0,0,0,0,0,2.7681,2.7764,2.776,2.7886,2.7948,2.8021,2.8084,2.8081,2.8153,2.8147,2.8172,2.819,2.8304,2.834,2.8284,2.8479,2.8433,2.8447,2.8451,2.8467,2.8479,2.8468,2.8252,0,0,0,0,0,2.7701,2.7781,2.7849,2.7953,2.7984,2.8029,2.8076,2.8088,2.8153,2.8179,2.8226,2.8289,2.8368,2.8419,2.8495,2.8623,2.8639,2.8678,2.869,2.8699,2.8711,2.8781,2.8799,2.8608,2.8608,2.8608,0,0,2.7744,2.7799,2.7848,2.796,2.8009,2.809,2.8051,2.8138,2.8199,2.8192,2.8302,2.8339,2.841,2.8531,2.8587,2.8565,2.8768,2.871,2.8717,2.8724,2.8792,2.881,2.8826,2.8614,2.8613,2.8612,0,0,2.7864,2.7914,2.8006,2.8057,2.8132,2.8161,2.8183,2.8257,2.8281,2.8392,2.8389,2.846,2.8595,2.8647,2.869,2.8829,2.8822,2.8853,2.8915,2.8983,2.8998,2.9012,2.9062,2.9079,2.8864,2.8864,2.8865,0,2.7908,2.8031,2.8054,2.8143,2.8192,2.819,2.8284,2.8331,2.8427,2.8461,2.8435,2.8605,2.8653,2.8785,2.8819,2.8854,2.888,2.8844,2.8994,2.9008,2.9021,2.9069,2.9087,2.8868,2.8867,2.8867,2.8867,0,2.8081,2.8166,2.8232,2.8325,2.8382,2.8472,2.8509,2.8563,2.8571,2.8602,2.8714,2.8772,2.8859,2.8891,2.8899,2.9025,2.9009,2.8989,2.8943,2.9042,2.9087,2.9106,2.8872,2.8871,2.887,2.8869,0,0,2.8222,2.8327,2.835,2.8393,2.8476,2.8542,2.8632,2.8718,2.8764,2.883,2.8906,2.902,2.9002,2.9051,2.9065,2.9125,2.9231,2.9097,2.9099,2.912,2.9373,2.9389,2.941,2.9227,2.923,2.9233,2.9367,0,2.835,2.8511,2.8535,2.8676,2.8755,2.8754,2.8833,2.8892,2.8923,2.8994,2.9028,2.9109,2.9078,2.9108,2.9167,2.9206,2.9282,2.9196,2.9298,2.9301,2.9281,2.9433,2.945,2.9574,2.9385,2.9388,2.939,0,2.8522,2.8593,2.8743,2.8815,2.8849,2.892,2.9,2.9068,2.9135,2.9153,2.9209,2.9215,2.9307,2.9257,2.9385,2.9326,2.9368,2.9393,2.9399,2.941,2.9352,2.9449,2.9614,2.9633,2.9418,2.9416,2.9414,0,2.861,2.8744,2.8851,2.8887,2.8973,2.9023,2.9061,2.9124,2.9174,2.9244,2.9277,2.9357,2.9401,2.9462,2.9489,2.9449,2.9615,2.9567,2.9633,2.9633,2.9669,2.9666,2.9844,2.9695,2.9695,2.9694,2.9694,0,2.8752,2.8844,2.8892,2.8958,2.906,2.9086,2.9186,2.9223,2.9279,2.9351,2.9354,2.9422,2.9454,2.9526,2.9548,2.965,2.967,2.9687,2.9692,2.9688,2.9686,2.9717,2.9709,2.9699,2.9698,2.9697,2.9697,0,2.8868,2.8904,2.9021,2.9093,2.9113,2.9186,2.9247,2.9311,2.9341,2.9433,2.9456,2.9504,2.9589,2.9622,2.9726,2.974,2.9859,2.9857,2.9837,2.9839,2.9904,2.9897,3.0108,3.0137,2.9968,2.997,2.9971,0,2.8957,2.9027,2.9107,2.9157,2.9197,2.9276,2.9327,2.9354,2.9407,2.9488,2.9542,2.9627,2.9697,2.9833,2.9877,2.9956,2.9956,3.0024,2.9968,2.9961,2.9958,2.9954,2.9961,3.0035,3.0037,3.0038,3.0039,0,2.911,2.9124,2.9198,2.9279,2.9341,2.9405,2.9468,2.9508,2.9544,2.9604,2.9692,2.9746,2.9852,2.9937,3.0019,3.0057,3.0055,3.0056,3.0076,3.0073,3.0059,3.0068,2.9867,3.0052,3.0051,3.005,3.0049,3.0048,2.9215,2.9278,2.9345,2.9427,2.9477,2.9536,2.96,2.9638,2.9712,2.9801,2.9813,2.9907,2.9971,3.008,3.0122,3.0195,3.0177,3.0206,3.0213,3.022,3.0225,3.0046,3.021,3.021,3.021,3.0209,3.0209,0,2.9369,2.9412,2.9487,2.9576,2.9641,2.9633,2.9702,2.9757,2.984,2.99,2.9969,3.0069,3.0151,3.0201,3.0283,3.0332,3.0333,3.0353,3.035,3.0359,3.0236,3.0211,3.0351,3.0351,3.0351,3.0351,3.0351,3.0351,2.9457,2.9563,2.9585,2.9716,2.9758,2.9851,2.9891,2.9945,2.9993,3.0105,3.0174,3.0206,3.0262,3.0348,3.0423,3.0435,3.0465,3.0487,3.0498,3.0382,3.0368,3.0354,3.033,3.0493,3.0493,3.0615,3.0616,3.0617]}]]